N428MC KGPT-KPIB

Flight info

Callsign N428MC
Flight time 0h 23m
Altitude 10000
Route LBY
Aircraft B350/M-VGD/A

Departure

Time 2026-05-06 23:03
Airport Gulfport Biloxi International Airport (KGPT)

Arrival

Time 2026-05-06 23:26
Airport Hattiesburg Laurel Regional Airport (KPIB)
Time Latitude Longitude Altitude Speed Heading
2026-05-06 22:58 30.40366 -89.07341 25 ft 0 kts 223°
2026-05-06 23:01 30.40364 -89.07354 25 ft 3 kts 347°
2026-05-06 23:01 30.40417 -89.07359 25 ft 13 kts 342°
2026-05-06 23:01 30.40499 -89.07303 25 ft 14 kts 48°
2026-05-06 23:02 30.40562 -89.07224 25 ft 14 kts 46°
2026-05-06 23:02 30.40529 -89.07128 25 ft 29 kts 138°
2026-05-06 23:02 30.40139 -89.06668 34 ft 119 kts 137°
2026-05-06 23:02 30.39475 -89.05961 474 ft 141 kts 141°
2026-05-06 23:03 30.38752 -89.05254 1217 ft 144 kts 146°
2026-05-06 23:03 30.37753 -89.04589 1268 ft 184 kts 168°
2026-05-06 23:03 30.36624 -89.03915 1923 ft 191 kts 137°
2026-05-06 23:03 30.36130 -89.02525 2715 ft 194 kts 98°
2026-05-06 23:04 30.36515 -89.01051 3325 ft 201 kts 57°
2026-05-06 23:04 30.37635 -89.00127 3856 ft 202 kts 13°
2026-05-06 23:04 30.38938 -89.00178 4354 ft 192 kts 332°
2026-05-06 23:04 30.39996 -89.01013 4871 ft 188 kts 322°
2026-05-06 23:05 30.41277 -89.01482 5438 ft 197 kts 340°
2026-05-06 23:05 30.42607 -89.01855 6069 ft 197 kts 339°
2026-05-06 23:05 30.43901 -89.02237 6697 ft 195 kts 338°
2026-05-06 23:05 30.45215 -89.02631 7303 ft 194 kts 337°
2026-05-06 23:06 30.46510 -89.03023 7880 ft 196 kts 337°
2026-05-06 23:06 30.47831 -89.03424 8479 ft 197 kts 337°
2026-05-06 23:06 30.49143 -89.03822 9063 ft 197 kts 337°
2026-05-06 23:06 30.50471 -89.04223 9640 ft 196 kts 336°
2026-05-06 23:07 30.51812 -89.04633 9963 ft 210 kts 337°
2026-05-06 23:07 30.53324 -89.05095 10015 ft 236 kts 338°
2026-05-06 23:07 30.54995 -89.05602 10019 ft 259 kts 339°
2026-05-06 23:07 30.56779 -89.06139 10015 ft 269 kts 339°
2026-05-06 23:08 30.58593 -89.06688 10007 ft 275 kts 339°
2026-05-06 23:08 30.60468 -89.07258 10012 ft 279 kts 339°
2026-05-06 23:08 30.62374 -89.07835 10008 ft 283 kts 339°
2026-05-06 23:08 30.64281 -89.08415 9998 ft 286 kts 339°
2026-05-06 23:09 30.66209 -89.09002 9997 ft 288 kts 339°
2026-05-06 23:09 30.68142 -89.09590 9993 ft 289 kts 339°
2026-05-06 23:09 30.70112 -89.10190 9994 ft 290 kts 339°
2026-05-06 23:09 30.72048 -89.10780 9991 ft 291 kts 339°
2026-05-06 23:10 30.74009 -89.11377 9989 ft 291 kts 339°
2026-05-06 23:10 30.75990 -89.11980 9988 ft 292 kts 339°
2026-05-06 23:10 30.77935 -89.12573 9988 ft 292 kts 339°
2026-05-06 23:10 30.79911 -89.13175 9990 ft 292 kts 339°
2026-05-06 23:11 30.81873 -89.13774 9987 ft 292 kts 339°
2026-05-06 23:11 30.83847 -89.14377 9989 ft 292 kts 339°
2026-05-06 23:11 30.85807 -89.14976 9988 ft 292 kts 339°
2026-05-06 23:11 30.87795 -89.15583 9988 ft 292 kts 339°
2026-05-06 23:12 30.89740 -89.16177 9981 ft 288 kts 339°
2026-05-06 23:12 30.91666 -89.16765 9979 ft 285 kts 339°
2026-05-06 23:12 30.93571 -89.17348 9982 ft 282 kts 339°
2026-05-06 23:12 30.95478 -89.17932 9982 ft 280 kts 339°
2026-05-06 23:13 30.97351 -89.18505 9984 ft 279 kts 339°
2026-05-06 23:13 30.99240 -89.19084 9987 ft 278 kts 338°
2026-05-06 23:13 31.01077 -89.19647 9984 ft 277 kts 339°
2026-05-06 23:13 31.02962 -89.20225 9981 ft 277 kts 339°
2026-05-06 23:14 31.04821 -89.20795 9984 ft 276 kts 338°
2026-05-06 23:14 31.06662 -89.21360 9981 ft 276 kts 338°
2026-05-06 23:14 31.08501 -89.21925 9981 ft 275 kts 338°
2026-05-06 23:14 31.10342 -89.22490 9802 ft 275 kts 338°
2026-05-06 23:15 31.12198 -89.23061 9420 ft 274 kts 338°
2026-05-06 23:15 31.14007 -89.23616 9059 ft 273 kts 339°
2026-05-06 23:15 31.15827 -89.24176 8688 ft 272 kts 339°
2026-05-06 23:15 31.17666 -89.24741 8329 ft 271 kts 339°
2026-05-06 23:16 31.19463 -89.25294 7962 ft 271 kts 339°
2026-05-06 23:16 31.21266 -89.25848 7569 ft 262 kts 339°
2026-05-06 23:16 31.22983 -89.26148 7353 ft 237 kts 340°
2026-05-06 23:16 31.24474 -89.26740 7028 ft 220 kts 334°
2026-05-06 23:17 31.25904 -89.27248 6658 ft 214 kts 336°
2026-05-06 23:17 31.27307 -89.27692 6225 ft 209 kts 341°
2026-05-06 23:17 31.28592 -89.28284 5346 ft 209 kts 321°
2026-05-06 23:17 31.29902 -89.29122 3890 ft 242 kts 323°
2026-05-06 23:18 31.31403 -89.30125 2146 ft 246 kts 331°
2026-05-06 23:18 31.32787 -89.30745 2062 ft 196 kts 336°
2026-05-06 23:18 31.34112 -89.31199 1726 ft 199 kts 347°
2026-05-06 23:18 31.35436 -89.31398 1597 ft 190 kts 351°
2026-05-06 23:19 31.36725 -89.31447 1474 ft 180 kts 353°
2026-05-06 23:19 31.37977 -89.31610 1299 ft 187 kts 347°
2026-05-06 23:19 31.38865 -89.31773 2605 ft 113 kts 344°
2026-05-06 23:19 31.39674 -89.31901 3022 ft 129 kts 347°
2026-05-06 23:20 31.40451 -89.31975 3752 ft 104 kts 347°
2026-05-06 23:20 31.41237 -89.31950 3510 ft 145 kts 349°
2026-05-06 23:20 31.42112 -89.32632 2329 ft 178 kts 311°
2026-05-06 23:20 31.43183 -89.33439 1435 ft 193 kts 333°
2026-05-06 23:21 31.44423 -89.33671 964 ft 167 kts 328°
2026-05-06 23:21 31.45465 -89.33752 539 ft 148 kts 21°
2026-05-06 23:21 31.46412 -89.33702 301 ft 125 kts
2026-05-06 23:21 31.47234 -89.33675 402 ft 121 kts
2026-05-06 23:22 31.48124 -89.33723 892 ft 139 kts 328°
2026-05-06 23:22 31.48516 -89.34624 1062 ft 131 kts 250°
2026-05-06 23:22 31.47807 -89.35097 1103 ft 146 kts 185°
2026-05-06 23:22 31.46703 -89.35133 1023 ft 171 kts 181°
2026-05-06 23:23 31.45549 -89.35050 1136 ft 157 kts 176°
2026-05-06 23:23 31.44502 -89.34960 1253 ft 148 kts 163°
2026-05-06 23:23 31.43968 -89.33927 1240 ft 167 kts 85°
2026-05-06 23:23 31.44810 -89.33474 593 ft 145 kts 342°
2026-05-06 23:24 31.45759 -89.33706 365 ft 141 kts 358°
2026-05-06 23:24 31.46622 -89.33703 305 ft 111 kts
2026-05-06 23:24 31.47328 -89.33699 347 ft 100 kts 14°
2026-05-06 23:24 31.48105 -89.33615 500 ft 142 kts
2026-05-06 23:25 31.49169 -89.33377 791 ft 174 kts 44°
2026-05-06 23:25 31.50009 -89.33324 1505 ft 121 kts 264°
2026-05-06 23:25 31.49405 -89.33708 886 ft 119 kts 185°
2026-05-06 23:25 31.48588 -89.33704 560 ft 119 kts 182°
2026-05-06 23:26 31.47784 -89.33711 369 ft 114 kts 178°
2026-05-06 23:26 31.47069 -89.33709 299 ft 93 kts 180°
2026-05-06 23:26 31.46495 -89.33716 300 ft 62 kts 176°
2026-05-06 23:26 31.46230 -89.33714 300 ft 17 kts 156°
2026-05-06 23:27 31.46247 -89.33696 299 ft 10 kts 359°
2026-05-06 23:27 31.46616 -89.33698 299 ft 86 kts
2026-05-06 23:27 31.47199 -89.33701 299 ft 60 kts 358°
2026-05-06 23:27 31.47440 -89.33710 300 ft 10 kts 230°
2026-05-06 23:28 31.47413 -89.33703 299 ft 11 kts 148°
2026-05-06 23:28 31.47345 -89.33642 298 ft 8 kts 154°
2026-05-06 23:28 31.47279 -89.33511 297 ft 25 kts 93°
2026-05-06 23:28 31.47247 -89.33477 297 ft 3 kts 205°
2026-05-06 23:29 31.47164 -89.33482 299 ft 20 kts 180°
2026-05-06 23:29 31.47060 -89.33466 299 ft 10 kts 94°
2026-05-06 23:29 31.47058 -89.33434 299 ft 0 kts 164°
2026-05-06 23:29 31.47056 -89.33434 299 ft 0 kts 181°